This is the latest recevied weather packets stored in our database for station/object K7DC. If no packets are shown the sender has not sent any weather packets the latest 10 day(s).
| Time | Temp. | Humidity | Pressure | Rain* | Wind** | Luminosity | Snow |
|---|---|---|---|---|---|---|---|
| 1788397201 | 29.44° C | 51% | 1014.7 hPa | 0 mm | - | 27 W/m² | - |
| 1788396896 | 29.44° C | 51% | 1015 hPa | 0 mm | - | 32 W/m² | - |
| 1788396593 | 29.44° C | 51% | 1015.1 hPa | 0 mm | - | 44 W/m² | - |
| 1788396292 | 29.44° C | 51% | 1015 hPa | 0 mm | - | 49 W/m² | - |
| 1788395988 | 30° C | 51% | 1014.8 hPa | 0 mm | - | 46 W/m² | - |
| 1788395688 | 30° C | 50% | 1015 hPa | 0 mm | - | 52 W/m² | - |
| 1788395384 | 30° C | 50% | 1015 hPa | 0 mm | - | 61 W/m² | - |
| 1788395084 | 30° C | 49% | 1015.2 hPa | 0 mm | - | 97 W/m² | - |
| 1788394783 | 30° C | 48% | 1015.3 hPa | 0 mm | - | 91 W/m² | - |
| 1788394478 | 30.56° C | 48% | 1015.1 hPa | 0 mm | - | 77 W/m² | - |
| 1788394177 | 30.56° C | 47% | 1015.1 hPa | 0 mm | - | 87 W/m² | - |
| 1788393873 | 30.56° C | 45% | 1015.3 hPa | 0 mm | - | 131 W/m² | - |
| 1788393571 | 30° C | 45% | 1015.3 hPa | 0 mm | - | 154 W/m² | - |
| 1788393267 | 30° C | 45% | 1015.2 hPa | 0 mm | - | 196 W/m² | - |
| 1788392961 | 30° C | 45% | 1015.2 hPa | 0 mm | - | 125 W/m² | - |
| 1788392656 | 30.56° C | 44% | 1015.3 hPa | 0 mm | - | 115 W/m² | - |
| 1788392355 | 31.11° C | 43% | 1014.8 hPa | 0 mm | - | 123 W/m² | - |
| 1788392055 | 31.67° C | 42% | 1015.3 hPa | 0 mm | - | 200 W/m² | - |
| 1788391754 | 32.22° C | 40% | 1015.1 hPa | 0 mm | - | 197 W/m² | - |
| 1788391449 | 31.67° C | 42% | 1015.3 hPa | 0 mm | - | 303 W/m² | - |
| 1788391148 | 31.11° C | 43% | 1015.1 hPa | 0 mm | - | 446 W/m² | - |
| 1788390844 | 30° C | 46% | 1015.4 hPa | 0 mm | - | 478 W/m² | - |
| 1788390538 | 29.44° C | 47% | 1015.5 hPa | 0 mm | - | 268 W/m² | - |
| 1788390238 | 29.44° C | 47% | 1015.7 hPa | 0 mm | - | 279 W/m² | - |
| 1788389938 | 29.44° C | 46% | 1015.2 hPa | 0 mm | - | 292 W/m² | - |
* Rain latest hour (hover to see other rain measurements)
** Current wind speed in m/s (hover to see current wind gust speed)